User: anonymous   Login
Location: NJAA Observatory
(40.6819°N, 74.8979°W)
Time: 23:08:39
(UTC-05:00)
Language:

Cosmos 2082 - Orbit

View from above orbital plane
View from above orbital plane
View from above satellite
View from above satellite

Ground track
Ground track

The orbit data is extracted from the following two-line orbital elements,

1 20624U 90046A   14330.68561010  .00000406  00000-0  23803-3 0   766
2 20624 071.0409 008.2998 0014919 002.8336 136.2631 14.14103678265223
Epoch (UTC): 26 November 2014 16:27:16
Eccentricity: 0.0014919
inclination: 71.0409°
perigee height: 834 km
apogee height: 856 km
right ascension of ascending node: 8.2998°
argument of perigee: 2.8336°
revolutions per day: 14.14103678
mean anomaly at epoch: 136.2631°
orbit number at epoch: 26522

The dashed part of the orbit path shows where the satellite is in the earth's shadow,  

DLR